Time,TemperatureF,DewpointF,PressureIn,WindDirection,WindDirectionDegrees,WindSpeedMPH,WindSpeedGustMPH,Humidity,HourlyPrecipIn,Conditions,Clouds,dailyrainin,SoftwareType,DateUTC
2013-03-21 00:00:00,43.0,33.0,-100.00,South,189,1.0,11.0,67,-99.99,,,-99.99,,2013-03-21 04:00:00,
2013-03-21 00:23:00,43.0,33.0,-100.00,South,189,1.0,11.0,67,-99.99,,,-99.99,,2013-03-21 04:23:00,
2013-03-21 00:33:00,43.0,33.0,-100.00,South,189,1.0,11.0,67,-99.99,,,-99.99,,2013-03-21 04:33:00,
2013-03-21 00:43:00,43.0,33.0,-100.00,South,189,1.0,11.0,67,-99.99,,,-99.99,,2013-03-21 04:43:00,
2013-03-21 00:53:00,43.0,33.0,-100.00,South,189,1.0,11.0,67,-99.99,,,-99.99,,2013-03-21 04:53:00,
2013-03-21 01:00:00,42.0,34.0,-100.00,South,176,0.0,8.0,75,-99.99,,,-99.99,,2013-03-21 05:00:00,
2013-03-21 01:33:00,42.0,34.0,-100.00,South,176,0.0,8.0,75,-99.99,,,-99.99,,2013-03-21 05:33:00,
2013-03-21 01:44:00,42.0,34.0,-100.00,South,176,0.0,8.0,75,-99.99,,,-99.99,,2013-03-21 05:44:00,
2013-03-21 01:52:00,42.0,34.0,-100.00,South,176,0.0,8.0,75,-99.99,,,-99.99,,2013-03-21 05:52:00,
2013-03-21 02:00:00,42.0,32.0,-100.00,SW,214,5.0,5.0,67,-99.99,,,-99.99,,2013-03-21 06:00:00,
2013-03-21 02:23:00,42.0,32.0,-100.00,SW,214,5.0,5.0,67,-99.99,,,-99.99,,2013-03-21 06:23:00,
2013-03-21 02:32:00,42.0,32.0,-100.00,SW,214,5.0,5.0,67,-99.99,,,-99.99,,2013-03-21 06:32:00,
2013-03-21 02:42:00,42.0,32.0,-100.00,SW,214,5.0,5.0,67,-99.99,,,-99.99,,2013-03-21 06:42:00,
2013-03-21 02:52:00,42.0,32.0,-100.00,SW,214,5.0,5.0,67,-99.99,,,-99.99,,2013-03-21 06:52:00,
2013-03-21 07:00:00,34.0,27.0,-100.00,North,10,12.0,21.0,74,-99.99,,,-99.99,,2013-03-21 11:00:00,
2013-03-21 07:23:00,34.0,27.0,-100.00,North,10,12.0,21.0,74,-99.99,,,-99.99,,2013-03-21 11:23:00,
2013-03-21 07:33:00,34.0,27.0,-100.00,North,10,12.0,21.0,74,-99.99,,,-99.99,,2013-03-21 11:33:00,
2013-03-21 07:43:00,34.0,27.0,-100.00,North,10,12.0,21.0,74,-99.99,,,-99.99,,2013-03-21 11:43:00,
2013-03-21 07:53:00,34.0,27.0,-100.00,North,10,12.0,21.0,74,-99.99,,,-99.99,,2013-03-21 11:53:00,
2013-03-21 08:00:00,34.0,27.0,-100.00,North,0,11.0,20.0,73,-99.99,,,-99.99,,2013-03-21 12:00:00,
2013-03-21 08:33:00,34.0,27.0,-100.00,North,0,11.0,20.0,73,-99.99,,,-99.99,,2013-03-21 12:33:00,
2013-03-21 08:43:00,34.0,27.0,-100.00,North,0,11.0,20.0,73,-99.99,,,-99.99,,2013-03-21 12:43:00,
2013-03-21 08:53:00,34.0,27.0,-100.00,North,0,11.0,20.0,73,-99.99,,,-99.99,,2013-03-21 12:53:00,
2013-03-21 09:00:00,35.0,27.0,-100.00,North,7,9.0,24.0,72,-99.99,,,-99.99,,2013-03-21 13:00:00,
2013-03-21 09:22:00,35.0,27.0,-100.00,North,7,9.0,24.0,72,-99.99,,,-99.99,,2013-03-21 13:22:00,
2013-03-21 09:33:00,35.0,27.0,-100.00,North,7,9.0,24.0,72,-99.99,,,-99.99,,2013-03-21 13:33:00,
2013-03-21 09:43:00,35.0,27.0,-100.00,North,7,9.0,24.0,72,-99.99,,,-99.99,,2013-03-21 13:43:00,
2013-03-21 09:53:00,35.0,27.0,-100.00,North,7,9.0,24.0,72,-99.99,,,-99.99,,2013-03-21 13:53:00,
2013-03-21 10:00:00,35.0,27.0,-100.00,North,0,7.0,21.0,74,-99.99,,,-99.99,,2013-03-21 14:00:00,
2013-03-21 10:32:00,35.0,27.0,-100.00,North,0,7.0,21.0,74,-99.99,,,-99.99,,2013-03-21 14:32:00,
2013-03-21 10:43:00,35.0,27.0,-100.00,North,0,7.0,21.0,74,-99.99,,,-99.99,,2013-03-21 14:43:00,
2013-03-21 10:52:00,35.0,27.0,-100.00,North,0,7.0,21.0,74,-99.99,,,-99.99,,2013-03-21 14:52:00,
2013-03-21 11:00:00,33.0,29.0,-100.00,NNE,26,11.0,18.0,86,-99.99,,,-99.99,,2013-03-21 15:00:00,
2013-03-21 11:33:00,33.0,29.0,-100.00,NNE,26,11.0,18.0,86,-99.99,,,-99.99,,2013-03-21 15:33:00,
2013-03-21 11:43:00,33.0,29.0,-100.00,NNE,26,11.0,18.0,86,-99.99,,,-99.99,,2013-03-21 15:43:00,
2013-03-21 11:53:00,33.0,29.0,-100.00,NNE,26,11.0,18.0,86,-99.99,,,-99.99,,2013-03-21 15:53:00,
2013-03-21 12:00:00,31.0,29.0,-100.00,NNW,335,15.0,19.0,93,-99.99,,,-99.99,,2013-03-21 16:00:00,
2013-03-21 12:33:00,31.0,29.0,-100.00,NNW,335,15.0,19.0,93,-99.99,,,-99.99,,2013-03-21 16:33:00,
2013-03-21 12:42:00,31.0,29.0,-100.00,NNW,335,15.0,19.0,93,-99.99,,,-99.99,,2013-03-21 16:42:00,
2013-03-21 12:53:00,31.0,29.0,-100.00,NNW,335,15.0,19.0,93,-99.99,,,-99.99,,2013-03-21 16:53:00,
2013-03-21 13:00:00,30.0,29.0,-100.00,North,0,9.0,18.0,97,-99.99,,,-99.99,,2013-03-21 17:00:00,
2013-03-21 13:23:00,30.0,29.0,-100.00,North,0,9.0,18.0,97,-99.99,,,-99.99,,2013-03-21 17:23:00,
2013-03-21 13:33:00,30.0,29.0,-100.00,North,0,9.0,18.0,97,-99.99,,,-99.99,,2013-03-21 17:33:00,
2013-03-21 13:43:00,30.0,29.0,-100.00,North,0,9.0,18.0,97,-99.99,,,-99.99,,2013-03-21 17:43:00,
2013-03-21 13:53:00,30.0,29.0,-100.00,North,0,9.0,18.0,97,-99.99,,,-99.99,,2013-03-21 17:53:00,
2013-03-21 14:00:00,31.0,31.0,-100.00,North,2,13.0,16.0,97,-99.99,,,-99.99,,2013-03-21 18:00:00,
2013-03-21 14:23:00,31.0,31.0,-100.00,North,2,13.0,16.0,97,-99.99,,,-99.99,,2013-03-21 18:23:00,
2013-03-21 14:32:00,31.0,31.0,-100.00,North,2,13.0,16.0,97,-99.99,,,-99.99,,2013-03-21 18:32:00,
2013-03-21 14:43:00,31.0,31.0,-100.00,North,2,13.0,16.0,97,-99.99,,,-99.99,,2013-03-21 18:43:00,
2013-03-21 14:52:00,31.0,31.0,-100.00,North,2,13.0,16.0,97,-99.99,,,-99.99,,2013-03-21 18:52:00,
2013-03-21 15:00:00,33.0,30.0,-100.00,NW,312,5.0,17.0,86,-99.99,,,-99.99,,2013-03-21 19:00:00,
2013-03-21 15:23:00,33.0,30.0,-100.00,NW,312,5.0,17.0,86,-99.99,,,-99.99,,2013-03-21 19:23:00,
2013-03-21 15:32:00,33.0,30.0,-100.00,NW,312,5.0,17.0,86,-99.99,,,-99.99,,2013-03-21 19:32:00,
2013-03-21 15:43:00,33.0,30.0,-100.00,NW,312,5.0,17.0,86,-99.99,,,-99.99,,2013-03-21 19:43:00,
2013-03-21 15:53:00,33.0,30.0,-100.00,NW,312,5.0,17.0,86,-99.99,,,-99.99,,2013-03-21 19:53:00,
2013-03-21 16:00:00,36.0,25.0,-100.00,NNW,337,11.0,20.0,65,-99.99,,,-99.99,,2013-03-21 20:00:00,
2013-03-21 16:23:00,36.0,25.0,-100.00,NNW,337,11.0,20.0,65,-99.99,,,-99.99,,2013-03-21 20:23:00,
2013-03-21 16:33:00,36.0,25.0,-100.00,NNW,337,11.0,20.0,65,-99.99,,,-99.99,,2013-03-21 20:33:00,
2013-03-21 16:43:00,36.0,25.0,-100.00,NNW,337,11.0,20.0,65,-99.99,,,-99.99,,2013-03-21 20:43:00,
2013-03-21 16:53:00,36.0,25.0,-100.00,NNW,337,11.0,20.0,65,-99.99,,,-99.99,,2013-03-21 20:53:00,
2013-03-21 17:00:00,37.0,20.0,-100.00,NW,312,10.0,21.0,49,-99.99,,,-99.99,,2013-03-21 21:00:00,
2013-03-21 17:23:00,37.0,20.0,-100.00,NW,312,10.0,21.0,49,-99.99,,,-99.99,,2013-03-21 21:23:00,
2013-03-21 17:33:00,37.0,20.0,-100.00,NW,312,10.0,21.0,49,-99.99,,,-99.99,,2013-03-21 21:33:00,
2013-03-21 17:43:00,37.0,20.0,-100.00,NW,312,10.0,21.0,49,-99.99,,,-99.99,,2013-03-21 21:43:00,
2013-03-21 17:53:00,37.0,20.0,-100.00,NW,312,10.0,21.0,49,-99.99,,,-99.99,,2013-03-21 21:53:00,
2013-03-21 18:00:00,36.0,19.0,-100.00,WNW,294,11.0,22.0,49,-99.99,,,-99.99,,2013-03-21 22:00:00,
2013-03-21 18:23:00,36.0,19.0,-100.00,WNW,294,11.0,22.0,49,-99.99,,,-99.99,,2013-03-21 22:23:00,
2013-03-21 18:34:00,36.0,19.0,-100.00,WNW,294,11.0,22.0,49,-99.99,,,-99.99,,2013-03-21 22:34:00,
2013-03-21 18:43:00,36.0,19.0,-100.00,WNW,294,11.0,22.0,49,-99.99,,,-99.99,,2013-03-21 22:43:00,
2013-03-21 18:53:00,36.0,19.0,-100.00,WNW,294,11.0,22.0,49,-99.99,,,-99.99,,2013-03-21 22:53:00,
2013-03-21 19:00:00,36.0,18.0,-100.00,WNW,303,13.0,25.0,49,-99.99,,,-99.99,,2013-03-21 23:00:00,
2013-03-21 19:33:00,36.0,18.0,-100.00,WNW,303,13.0,25.0,49,-99.99,,,-99.99,,2013-03-21 23:33:00,
2013-03-21 19:43:00,36.0,18.0,-100.00,WNW,303,13.0,25.0,49,-99.99,,,-99.99,,2013-03-21 23:43:00,
2013-03-21 19:53:00,36.0,18.0,-100.00,WNW,303,13.0,25.0,49,-99.99,,,-99.99,,2013-03-21 23:53:00,
2013-03-21 20:00:00,35.0,14.0,-100.00,NW,312,18.0,26.0,41,-99.99,,,-99.99,,2013-03-22 00:00:00,
2013-03-21 20:32:00,35.0,14.0,-100.00,NW,312,18.0,26.0,41,-99.99,,,-99.99,,2013-03-22 00:32:00,
2013-03-21 20:42:00,35.0,14.0,-100.00,NW,312,18.0,26.0,41,-99.99,,,-99.99,,2013-03-22 00:42:00,
2013-03-21 20:52:00,35.0,14.0,-100.00,NW,312,18.0,26.0,41,-99.99,,,-99.99,,2013-03-22 00:52:00,
2013-03-21 21:00:00,34.0,14.0,-100.00,NNW,331,21.0,31.0,43,-99.99,,,-99.99,,2013-03-22 01:00:00,
2013-03-21 21:33:00,34.0,14.0,-100.00,NNW,331,21.0,31.0,43,-99.99,,,-99.99,,2013-03-22 01:33:00,
2013-03-21 21:43:00,34.0,14.0,-100.00,NNW,331,21.0,31.0,43,-99.99,,,-99.99,,2013-03-22 01:43:00,
2013-03-21 21:53:00,34.0,14.0,-100.00,NNW,331,21.0,31.0,43,-99.99,,,-99.99,,2013-03-22 01:53:00,
2013-03-21 22:00:00,33.0,13.0,-100.00,NNW,335,21.0,28.0,43,-99.99,,,-99.99,,2013-03-22 02:00:00,
2013-03-21 22:22:00,33.0,13.0,-100.00,NNW,335,21.0,28.0,43,-99.99,,,-99.99,,2013-03-22 02:22:00,
2013-03-21 22:32:00,33.0,13.0,-100.00,NNW,335,21.0,28.0,43,-99.99,,,-99.99,,2013-03-22 02:32:00,
2013-03-21 22:43:00,33.0,13.0,-100.00,NNW,335,21.0,28.0,43,-99.99,,,-99.99,,2013-03-22 02:43:00,
2013-03-21 22:53:00,33.0,13.0,-100.00,NNW,335,21.0,28.0,43,-99.99,,,-99.99,,2013-03-22 02:53:00,
2013-03-21 23:00:00,32.0,10.0,-100.00,NNW,329,14.0,29.0,40,-99.99,,,-99.99,,2013-03-22 03:00:00,
2013-03-21 23:22:00,32.0,10.0,-100.00,NNW,329,14.0,29.0,40,-99.99,,,-99.99,,2013-03-22 03:22:00,
2013-03-21 23:33:00,32.0,10.0,-100.00,NNW,329,14.0,29.0,40,-99.99,,,-99.99,,2013-03-22 03:33:00,
2013-03-21 23:43:00,32.0,10.0,-100.00,NNW,329,14.0,29.0,40,-99.99,,,-99.99,,2013-03-22 03:43:00,
2013-03-21 23:53:00,32.0,10.0,-100.00,NNW,329,14.0,29.0,40,-99.99,,,-99.99,,2013-03-22 03:53:00,